Location: Newark
(25.0000°N, 73.5000°E)
Time: 04:27:20
(UTC+00:00)

Altair - Pass Details

Date: 10 March 2021
Orbit: 1501 x 1683 km, 47.2° (Epoch: 12 April)

Event Time Altitude Azimuth Distance (km) Brightness Sun altitude
Rises 14:06:47 0° 294° (WNW) 4,632 11.4 -13.1°
Reaches altitude 10° 14:11:12 10° 312° (NW) 3,662 10.2 -14.1°
Maximum altitude 14:17:06 18° 353° (N) 3,090 9.2 -15.4°
Drops below altitude 10° 14:23:05 10° 33° (NNE) 3,726 9.2 -16.8°
Enters shadow 14:25:47 - 45° (NE) 4,298 9.5 -17.4°
Sets 14:27:39 0° 52° (NE) 4,743 - -17.8°
